BWA414C MKJP-MYNN

Flight info

Callsign BWA414C
Flight time 1h 9m
Altitude FL350
Route ENAMO HODGY ZQA
Aircraft B738/M-SDE2E3FGHIRWXY/LB1

Departure

Time 2026-05-05 00:40
Airport Norman Manley International Airport (MKJP)

Arrival

Time 2026-05-05 01:50
Airport Lynden Pindling International Airport (MYNN)
Time Latitude Longitude Altitude Speed Heading
2026-05-05 00:36 17.94012 -76.79905 34 ft 0 kts 112°
2026-05-05 00:39 17.94001 -76.79874 34 ft 14 kts 110°
2026-05-05 00:39 17.93887 -76.79575 35 ft 78 kts 114°
2026-05-05 00:39 17.93602 -76.78844 35 ft 136 kts 110°
2026-05-05 00:40 17.93195 -76.77796 285 ft 164 kts 113°
2026-05-05 00:40 17.92722 -76.76664 849 ft 175 kts 114°
2026-05-05 00:40 17.92189 -76.75452 1375 ft 189 kts 114°
2026-05-05 00:40 17.91657 -76.74155 1906 ft 201 kts 111°
2026-05-05 00:41 17.91099 -76.72730 2344 ft 219 kts 111°
2026-05-05 00:41 17.90492 -76.71189 2805 ft 236 kts 111°
2026-05-05 00:41 17.89876 -76.69530 3281 ft 252 kts 103°
2026-05-05 00:41 17.89938 -76.67699 3888 ft 260 kts 69°
2026-05-05 00:42 17.91043 -76.66200 4658 ft 264 kts 37°
2026-05-05 00:42 17.92743 -76.65477 5447 ft 269 kts 11°
2026-05-05 00:42 17.94615 -76.65513 6189 ft 274 kts 354°
2026-05-05 00:42 17.96526 -76.65782 6912 ft 278 kts 354°
2026-05-05 00:43 17.98467 -76.66025 7652 ft 282 kts 355°
2026-05-05 00:43 18.00432 -76.66254 8380 ft 287 kts 355°
2026-05-05 00:43 18.02423 -76.66486 9103 ft 291 kts 355°
2026-05-05 00:43 18.04435 -76.66723 9837 ft 295 kts 355°
2026-05-05 00:44 18.06488 -76.66970 10476 ft 303 kts 355°
2026-05-05 00:44 18.08636 -76.67228 10878 ft 320 kts 354°
2026-05-05 00:44 18.10923 -76.67501 11269 ft 336 kts 354°
2026-05-05 00:44 18.13308 -76.67787 11642 ft 352 kts 354°
2026-05-05 00:45 18.15804 -76.68088 11990 ft 368 kts 354°
2026-05-05 00:45 18.18413 -76.68405 12277 ft 385 kts 354°
2026-05-05 00:45 18.21107 -76.68731 12729 ft 394 kts 353°
2026-05-05 00:45 18.23848 -76.69064 13349 ft 399 kts 353°
2026-05-05 00:46 18.26609 -76.69398 14031 ft 401 kts 353°
2026-05-05 00:46 18.29417 -76.69738 14683 ft 406 kts 353°
2026-05-05 00:46 18.32238 -76.70081 15342 ft 410 kts 352°
2026-05-05 00:46 18.35081 -76.70426 15978 ft 414 kts 352°
2026-05-05 00:47 18.37960 -76.70776 16606 ft 418 kts 352°
2026-05-05 00:47 18.40867 -76.71129 17234 ft 421 kts 352°
2026-05-05 00:47 18.43779 -76.71483 17866 ft 424 kts 352°
2026-05-05 00:47 18.46709 -76.71839 18478 ft 427 kts 352°
2026-05-05 00:48 18.49695 -76.72201 19089 ft 429 kts 352°
2026-05-05 00:48 18.52676 -76.72563 19661 ft 433 kts 352°
2026-05-05 00:48 18.55680 -76.72927 20231 ft 435 kts 352°
2026-05-05 00:48 18.58710 -76.73294 20789 ft 438 kts 352°
2026-05-05 00:49 18.61740 -76.73661 21353 ft 440 kts 352°
2026-05-05 00:49 18.64788 -76.74032 21922 ft 442 kts 352°
2026-05-05 00:49 18.67851 -76.74404 22470 ft 444 kts 352°
2026-05-05 00:49 18.70944 -76.74781 22983 ft 447 kts 352°
2026-05-05 00:50 18.74062 -76.75162 23391 ft 452 kts 352°
2026-05-05 00:50 18.77219 -76.75548 23846 ft 455 kts 352°
2026-05-05 00:50 18.80404 -76.75937 24324 ft 458 kts 351°
2026-05-05 00:50 18.83600 -76.76326 24756 ft 462 kts 351°
2026-05-05 00:51 18.86826 -76.76719 25202 ft 465 kts 351°
2026-05-05 00:51 18.90079 -76.77117 25628 ft 469 kts 351°
2026-05-05 00:51 18.93376 -76.77521 26089 ft 472 kts 350°
2026-05-05 00:51 18.96656 -76.77924 26475 ft 475 kts 350°
2026-05-05 00:52 18.99961 -76.78329 26863 ft 479 kts 350°
2026-05-05 00:52 19.03307 -76.78740 27270 ft 482 kts 350°
2026-05-05 00:52 19.06664 -76.79152 27743 ft 483 kts 350°
2026-05-05 00:52 19.09995 -76.79558 28359 ft 481 kts 349°
2026-05-05 00:53 19.13330 -76.79965 28909 ft 480 kts 349°
2026-05-05 00:53 19.16676 -76.80372 29498 ft 478 kts 349°
2026-05-05 00:53 19.19959 -76.80772 30123 ft 474 kts 349°
2026-05-05 00:53 19.23233 -76.81173 30671 ft 472 kts 348°
2026-05-05 00:54 19.26493 -76.81574 31196 ft 470 kts 348°
2026-05-05 00:54 19.29754 -76.81975 31720 ft 468 kts 348°
2026-05-05 00:54 19.32995 -76.82373 32321 ft 464 kts 348°
2026-05-05 00:54 19.36184 -76.82765 32966 ft 460 kts 347°
2026-05-05 00:55 19.39389 -76.83160 33369 ft 461 kts 347°
2026-05-05 00:55 19.42586 -76.83555 33882 ft 460 kts 347°
2026-05-05 00:55 19.45762 -76.83946 34408 ft 459 kts 347°
2026-05-05 00:55 19.48934 -76.84335 34903 ft 458 kts 347°
2026-05-05 00:56 19.52113 -76.84727 35002 ft 461 kts 347°
2026-05-05 00:56 19.58494 -76.85515 35002 ft 456 kts 347°
2026-05-05 00:57 19.64828 -76.86295 35004 ft 457 kts 347°
2026-05-05 00:57 19.71175 -76.87082 35004 ft 456 kts 347°
2026-05-05 00:58 19.77486 -76.87864 35009 ft 457 kts 347°
2026-05-05 00:58 19.83825 -76.88647 35032 ft 456 kts 347°
2026-05-05 00:59 19.90131 -76.89427 35059 ft 456 kts 347°
2026-05-05 00:59 19.96452 -76.90212 35082 ft 455 kts 347°
2026-05-05 01:00 20.02751 -76.90993 35100 ft 455 kts 347°
2026-05-05 01:00 20.09083 -76.91777 35081 ft 457 kts 347°
2026-05-05 01:01 20.15421 -76.92568 35060 ft 458 kts 347°
2026-05-05 01:01 20.21769 -76.93356 35031 ft 458 kts 347°
2026-05-05 01:02 20.28123 -76.94146 35011 ft 459 kts 347°
2026-05-05 01:02 20.34473 -76.94934 35007 ft 458 kts 347°
2026-05-05 01:03 20.40807 -76.95722 35003 ft 458 kts 347°
2026-05-05 01:03 20.47156 -76.96518 35001 ft 459 kts 346°
2026-05-05 01:04 20.53519 -76.97312 34998 ft 458 kts 346°
2026-05-05 01:04 20.63045 -76.98502 34997 ft 459 kts 346°
2026-05-05 01:05 20.69398 -76.99296 34999 ft 458 kts 346°
2026-05-05 01:05 20.75771 -77.00094 34994 ft 459 kts 346°
2026-05-05 01:06 20.82117 -77.00888 34996 ft 460 kts 346°
2026-05-05 01:06 20.88489 -77.01686 34998 ft 458 kts 346°
2026-05-05 01:07 20.94871 -77.02486 35000 ft 459 kts 346°
2026-05-05 01:07 21.01248 -77.03288 35001 ft 462 kts 346°
2026-05-05 01:08 21.07629 -77.04088 35007 ft 461 kts 346°
2026-05-05 01:08 21.14007 -77.04889 35003 ft 460 kts 346°
2026-05-05 01:09 21.20393 -77.05696 35003 ft 460 kts 346°
2026-05-05 01:09 21.26777 -77.06505 35017 ft 461 kts 346°
2026-05-05 01:10 21.33148 -77.07309 35016 ft 461 kts 346°
2026-05-05 01:10 21.39543 -77.08114 35012 ft 459 kts 346°
2026-05-05 01:11 21.45912 -77.08920 35016 ft 461 kts 346°
2026-05-05 01:11 21.52306 -77.09728 35014 ft 462 kts 346°
2026-05-05 01:12 21.58676 -77.10529 35008 ft 459 kts 346°
2026-05-05 01:12 21.65085 -77.11340 35018 ft 462 kts 346°
2026-05-05 01:13 21.71452 -77.12144 35014 ft 460 kts 346°
2026-05-05 01:13 21.77846 -77.12959 35008 ft 460 kts 346°
2026-05-05 01:14 21.84247 -77.13774 35012 ft 461 kts 346°
2026-05-05 01:14 21.90632 -77.14587 35009 ft 461 kts 346°
2026-05-05 01:15 21.97021 -77.15403 35007 ft 462 kts 346°
2026-05-05 01:15 22.03404 -77.16215 35017 ft 462 kts 346°
2026-05-05 01:16 22.09836 -77.17032 35011 ft 460 kts 346°
2026-05-05 01:16 22.16208 -77.17839 35003 ft 461 kts 346°
2026-05-05 01:17 22.22592 -77.18659 34995 ft 461 kts 346°
2026-05-05 01:17 22.29060 -77.19488 34986 ft 464 kts 346°
2026-05-05 01:18 22.35483 -77.20309 34987 ft 464 kts 346°
2026-05-05 01:18 22.41900 -77.21130 34990 ft 464 kts 346°
2026-05-05 01:19 22.48328 -77.21955 34988 ft 464 kts 346°
2026-05-05 01:19 22.54764 -77.22778 34987 ft 465 kts 346°
2026-05-05 01:20 22.61184 -77.23603 34990 ft 464 kts 345°
2026-05-05 01:20 22.67628 -77.24434 34987 ft 466 kts 346°
2026-05-05 01:21 22.74087 -77.25268 34988 ft 466 kts 345°
2026-05-05 01:21 22.80530 -77.26096 34987 ft 464 kts 346°
2026-05-05 01:22 22.86956 -77.26917 34986 ft 465 kts 346°
2026-05-05 01:22 22.93402 -77.27749 34990 ft 468 kts 345°
2026-05-05 01:23 22.99849 -77.28580 34988 ft 464 kts 345°
2026-05-05 01:23 23.06286 -77.29411 34989 ft 462 kts 345°
2026-05-05 01:24 23.12731 -77.30250 34988 ft 465 kts 345°
2026-05-05 01:24 23.19163 -77.31083 34989 ft 464 kts 345°
2026-05-05 01:25 23.25562 -77.31914 34989 ft 464 kts 345°
2026-05-05 01:25 23.31989 -77.32751 34987 ft 463 kts 345°
2026-05-05 01:26 23.38384 -77.33580 34990 ft 462 kts 346°
2026-05-05 01:26 23.44805 -77.34415 34990 ft 464 kts 345°
2026-05-05 01:27 23.51246 -77.35257 34988 ft 465 kts 345°
2026-05-05 01:27 23.57670 -77.36078 34993 ft 466 kts 346°
2026-05-05 01:28 23.64169 -77.36573 34989 ft 465 kts 349°
2026-05-05 01:28 23.70680 -77.36888 34989 ft 468 kts 350°
2026-05-05 01:29 23.73937 -77.37041 34777 ft 464 kts 349°
2026-05-05 01:29 23.77148 -77.37194 34290 ft 459 kts 349°
2026-05-05 01:29 23.80361 -77.37359 33634 ft 460 kts 350°
2026-05-05 01:29 23.83573 -77.37533 32886 ft 462 kts 350°
2026-05-05 01:30 23.86813 -77.37715 32117 ft 464 kts 350°
2026-05-05 01:30 23.90049 -77.37900 31282 ft 466 kts 350°
2026-05-05 01:30 23.93291 -77.38089 30400 ft 469 kts 350°
2026-05-05 01:30 23.96553 -77.38281 29486 ft 471 kts 351°
2026-05-05 01:31 23.99820 -77.38474 28517 ft 473 kts 351°
2026-05-05 01:31 24.03112 -77.38669 27516 ft 476 kts 351°
2026-05-05 01:31 24.06424 -77.38863 26464 ft 478 kts 351°
2026-05-05 01:31 24.09758 -77.39058 25360 ft 481 kts 351°
2026-05-05 01:32 24.13112 -77.39255 24231 ft 484 kts 351°
2026-05-05 01:32 24.16458 -77.39452 23405 ft 480 kts 352°
2026-05-05 01:32 24.19762 -77.39643 22717 ft 473 kts 352°
2026-05-05 01:32 24.23020 -77.39831 21997 ft 468 kts 352°
2026-05-05 01:33 24.26250 -77.40018 21242 ft 464 kts 352°
2026-05-05 01:33 24.29454 -77.40205 20469 ft 460 kts 352°
2026-05-05 01:33 24.32658 -77.40392 19681 ft 457 kts 352°
2026-05-05 01:33 24.35813 -77.40578 18890 ft 453 kts 352°
2026-05-05 01:34 24.38950 -77.40764 18088 ft 446 kts 352°
2026-05-05 01:34 24.41988 -77.40945 17319 ft 433 kts 352°
2026-05-05 01:34 24.44951 -77.41122 16566 ft 422 kts 352°
2026-05-05 01:34 24.47839 -77.41298 16071 ft 414 kts 352°
2026-05-05 01:35 24.50723 -77.41478 15921 ft 416 kts 352°
2026-05-05 01:35 24.53643 -77.41661 15899 ft 418 kts 352°
2026-05-05 01:35 24.56549 -77.41841 15893 ft 418 kts 352°
2026-05-05 01:35 24.59340 -77.42287 15825 ft 392 kts 339°
2026-05-05 01:36 24.61834 -77.43373 15083 ft 388 kts 329°
2026-05-05 01:36 24.64164 -77.44854 14281 ft 385 kts 324°
2026-05-05 01:36 24.66405 -77.46424 13648 ft 382 kts 324°
2026-05-05 01:36 24.68653 -77.47961 12948 ft 380 kts 325°
2026-05-05 01:37 24.70943 -77.49434 12279 ft 378 kts 327°
2026-05-05 01:37 24.73234 -77.50826 11601 ft 376 kts 328°
2026-05-05 01:37 24.75529 -77.52172 11044 ft 372 kts 329°
2026-05-05 01:37 24.77812 -77.53489 10630 ft 371 kts 329°
2026-05-05 01:38 24.80096 -77.54800 10254 ft 370 kts 329°
2026-05-05 01:38 24.82369 -77.56105 10161 ft 369 kts 329°
2026-05-05 01:38 24.84652 -77.57419 10153 ft 370 kts 329°
2026-05-05 01:38 24.86952 -77.58743 10156 ft 369 kts 329°
2026-05-05 01:39 24.89135 -77.60017 10145 ft 340 kts 326°
2026-05-05 01:39 24.90792 -77.61644 10150 ft 305 kts 302°
2026-05-05 01:39 24.91722 -77.63607 10152 ft 278 kts 290°
2026-05-05 01:39 24.92396 -77.65544 10153 ft 267 kts 287°
2026-05-05 01:40 24.93036 -77.67471 10151 ft 268 kts 287°
2026-05-05 01:40 24.93669 -77.69366 9868 ft 262 kts 287°
2026-05-05 01:40 24.94303 -77.71264 9207 ft 268 kts 287°
2026-05-05 01:40 24.94938 -77.73178 8727 ft 266 kts 287°
2026-05-05 01:41 24.95562 -77.75079 8238 ft 264 kts 287°
2026-05-05 01:41 24.96173 -77.76956 8051 ft 256 kts 287°
2026-05-05 01:41 24.96760 -77.78752 7995 ft 246 kts 287°
2026-05-05 01:41 24.97341 -77.80528 7367 ft 254 kts 287°
2026-05-05 01:42 24.97941 -77.82378 6716 ft 260 kts 288°
2026-05-05 01:42 24.98542 -77.84259 6223 ft 259 kts 288°
2026-05-05 01:42 24.99190 -77.86084 5786 ft 258 kts 297°
2026-05-05 01:42 25.00458 -77.87477 5230 ft 266 kts 331°
2026-05-05 01:43 25.02269 -77.87827 4749 ft 271 kts
2026-05-05 01:43 25.03965 -77.86970 4276 ft 274 kts 42°
2026-05-05 01:43 25.04876 -77.85196 4091 ft 268 kts 80°
2026-05-05 01:43 25.04689 -77.83167 4070 ft 271 kts 111°
2026-05-05 01:44 25.04052 -77.81197 4059 ft 271 kts 103°
2026-05-05 01:44 25.03907 -77.79177 4030 ft 259 kts 89°
2026-05-05 01:44 25.03971 -77.77223 3845 ft 253 kts 89°
2026-05-05 01:44 25.03963 -77.75290 3534 ft 253 kts 92°
2026-05-05 01:45 25.03855 -77.73373 3314 ft 248 kts 95°
2026-05-05 01:45 25.03707 -77.71483 3031 ft 247 kts 95°
2026-05-05 01:45 25.03557 -77.69631 2849 ft 240 kts 95°
2026-05-05 01:45 25.03457 -77.67797 2626 ft 237 kts 91°
2026-05-05 01:46 25.03449 -77.66013 2567 ft 227 kts 89°
2026-05-05 01:46 25.03473 -77.64321 2565 ft 216 kts 89°
2026-05-05 01:46 25.03495 -77.62685 2437 ft 211 kts 89°
2026-05-05 01:46 25.03510 -77.61094 2273 ft 204 kts 89°
2026-05-05 01:47 25.03520 -77.59538 2000 ft 203 kts 89°
2026-05-05 01:47 25.03531 -77.58010 1797 ft 199 kts 89°
2026-05-05 01:47 25.03541 -77.56518 1761 ft 182 kts 89°
2026-05-05 01:47 25.03514 -77.55165 1546 ft 172 kts 92°
2026-05-05 01:48 25.03472 -77.53903 1282 ft 165 kts 91°
2026-05-05 01:48 25.03482 -77.52669 895 ft 160 kts 89°
2026-05-05 01:48 25.03541 -77.51504 672 ft 146 kts 87°
2026-05-05 01:48 25.03588 -77.50453 445 ft 133 kts 90°
2026-05-05 01:49 25.03591 -77.49449 264 ft 132 kts 91°
2026-05-05 01:49 25.03599 -77.48424 121 ft 135 kts 91°
2026-05-05 01:49 25.03596 -77.47418 26 ft 125 kts 89°
2026-05-05 01:49 25.03604 -77.46556 26 ft 98 kts 87°
2026-05-05 01:50 25.03607 -77.46033 26 ft 31 kts 89°
2026-05-05 01:50 25.03609 -77.45864 26 ft 1 kts 89°